Powrót do katalogu

CZ-4 DEB

AktywnySSO
NORAD 27492·DEBRIS·🇨🇳 China

Wystrzelony Oct 14, 1999 z Taiyuan Satellite Launch Center

Loading…

Następne Przeloty (najbliższe 24 godziny)

TLE

ŚwieżeSource: Space-Track

Epoka: Sep 14, 2026, 15:12 UTC

1 27492U 99057MM  26257.63352203  .00003173  00000-0  61460-3 0  9994
2 27492  98.3816 316.7009 0076915 103.0286 257.9516 14.62139448336497

Śledź CZ-4 DEB w czasie rzeczywistym z AllMySat

Download on the App Store